Location: Heckmühle
(50.1976°N, 9.7792°E)
Time: 10:09:23
(UTC+00:00)

Daily predictions for brighter satellites

Satellite Brightness Start Highest point End
(mag) Time Altitude Azimuth Time Altitude Azimuth Time Altitude Azimuth
Cosmos 2298 Rocket 4.2 20:04:31 10° NNW 20:09:49 66° ENE 20:15:04 10° SE
Cosmos 2150 Rocket 4.2 20:06:07 10° NNW 20:11:35 73° ENE 20:16:56 10° SSE
CZ-4B R/B 3.5 20:08:34 10° SE 20:12:11 40° ENE 20:15:56 10° N
USA 186 0.8 20:11:43 10° SSE 20:14:04 76° E 20:16:19 10° N
Cosmos 836 Rocket 4.5 20:08:56 10° SSW 20:14:06 79° ESE 20:19:21 10° NNE
Sich 1 3.3 20:12:13 10° N 20:16:25 52° ENE 20:20:35 10° SSE
Terra 3.5 20:22:31 10° SSW 20:26:39 30° W 20:30:49 10° NNW
Cosmos 44 Rocket 4.3 20:23:45 10° NW 20:28:38 43° WSW 20:33:22 10° S
CENTAUR R/B 2.9 20:23:32 10° SW 20:29:13 71° NW 20:36:32 10° NE
Cosmos 1758 3.2 20:27:24 10° N 20:31:03 61° ENE 20:34:42 10° SSE
Cosmos 2208 Rocket 4.0 20:30:47 10° SSW 20:35:58 84° ESE 20:41:10 10° NNE
BREEZE-M DEB (TANK) 1.4 20:35:09 10° W 20:37:37 67° S 20:39:39 10° ESE
SPOT 3 Rocket 3.6 20:34:28 10° SSE 20:39:36 88° WSW 20:44:48 10° NNW
YAOGAN 11 4.3 20:37:55 10° NNE 20:42:24 78° WNW 20:46:48 10° SSW
Cosmos 2227 4.3 20:40:13 10° SSW 20:45:58 89° ESE 20:51:47 10° NNE
Okean 3 Rocket 3.6 20:42:10 10° N 20:46:39 88° W 20:51:03 10° S
Cosmos 724 4.3 20:41:41 10° NW 20:47:32 86° NE 20:52:53 12° SE
Ariane Rocket 3.0 20:44:09 10° SSE 20:49:14 87° ENE 20:54:21 10° NNW
IRS-1C Rocket 4.1 20:44:31 10° SSE 20:49:47 87° ENE 20:55:05 10° NNW
Okean-O 3.9 20:46:29 10° SSW 20:50:31 36° W 20:54:34 10° NNW
Cosmos 1805 Rocket 3.6 20:48:38 10° N 20:52:57 69° ENE 20:56:46 13° SSE
Cosmos 1340 Rocket 2.8 20:52:34 10° NNW 20:56:20 71° W 20:59:47 12° S
NOSS 3-2 (A) 3.1 20:51:45 10° SW 20:56:47 79° SE 21:02:54 10° NE
Cosmos 1408 Rocket 3.6 20:52:42 10° N 20:57:07 76° E 21:01:00 13° SSE
USA 215 3.3 20:50:54 10° ESE 20:57:26 84° NNE 21:04:00 10° WNW
Cosmos 1842 Rocket 4.3 20:54:02 10° SSW 20:58:24 56° WNW 21:02:47 10° N
Cosmos 1603 4.1 20:52:48 10° NW 20:58:28 60° WSW 21:03:42 12° S
Cosmos 1743 Rocket 3.8 21:00:13 10° N 21:04:28 54° ENE 21:07:49 16° SSE
Cosmos 1703 3.5 21:04:34 18° SSE 21:06:30 36° E 21:09:27 10° NNE
USA 245 4.0 21:03:21 10° S 21:06:56 40° WSW 21:09:55 10° NNW
Cosmos 1844 Rocket 3.1 21:02:55 10° SW 21:08:27 65° WNW 21:14:01 10° NNE
Meteor 1-22 Rocket 4.4 21:04:07 10° N 21:09:22 55° ENE 21:13:31 16° SSE
SL-14 R/B 4.0 21:07:37 10° SSW 21:11:14 49° WNW 21:14:52 10° N
Cosmos 1553 Rocket 4.0 21:07:45 10° S 21:14:07 79° E 21:20:27 10° NNE
CZ-4C R/B 4.1 21:08:35 10° WNW 21:14:56 34° WSW 21:22:27 10° S
Cosmos 1833 Rocket 3.0 21:12:42 10° NNW 21:18:19 60° NE 21:22:56 15° SE
Cosmos 1151 Rocket 3.1 21:14:34 10° S 21:18:55 84° WNW 21:23:16 10° N
Cosmos 2082 Rocket 4.2 21:18:56 10° NNW 21:23:13 21° NE 21:27:27 10° E
CZ-2C R/B 2.2 21:23:48 21° S 21:25:24 58° WSW 21:28:07 10° NNW
Cosmos 1953 2.3 21:23:58 10° N 21:27:30 55° ENE 21:29:35 22° SSE
SL-24 R/B - RUBIN 2 4.5 21:24:50 10° WSW 21:29:13 51° NW 21:33:29 10° NE
CZ-4B R/B 4.3 21:24:45 11° S 21:29:21 47° W 21:34:23 10° NNW
Okean O Rocket 4.1 21:27:34 10° SW 21:30:14 16° W 21:32:57 10° NW
Cosmos 2278 Rocket 4.0 21:28:07 12° ESE 21:30:16 15° E 21:33:17 10° ENE
Cosmos 1633 Rocket 3.6 21:31:09 10° N 21:35:23 46° ENE 21:38:07 20° SE
NOSS 3-2 (C) 3.1 21:33:12 10° SSW 21:38:10 64° SE 21:44:09 10° NE
Cosmos 1461 4.4 21:40:52 10° WNW 21:43:25 19° WSW 21:45:06 14° SSW
NOSS 2-3 (C) 3.5 21:42:37 24° S 21:44:06 37° SE 21:47:25 10° NE
Cosmos 1745 Rocket 4.0 21:40:01 10° N 21:46:19 90° SSE 21:51:04 19° S
Cosmos 2056 Rocket 4.4 21:44:42 10° NNW 21:49:31 38° ENE 21:53:26 14° ESE
Helios 1A 2.9 21:51:22 10° NNE 21:55:17 62° ESE 21:57:27 25° S
Cosmos 2344 3.7 21:49:04 10° SSW 21:56:37 49° ESE 22:03:28 10° NE
GP-B 4.1 21:53:31 10° N 21:57:40 42° W 22:01:23 12° SSW
Helios 1B rocket 2.4 21:57:42 26° SE 21:59:21 52° ENE 22:02:44 10° N
Iridium 4 Rocket 3.9 21:55:05 14° SSW 21:59:46 60° W 22:04:47 10° N
BREEZE-M R/B 4.5 21:57:28 11° SSW 22:01:56 41° SE 22:10:54 10° ENE
ARIANE 5 R/B 3.3 21:59:12 20° SE 22:01:56 45° ENE 22:06:11 10° N
Cosmos 1470 Rocket 3.7 22:02:49 10° N 22:07:15 65° ENE 22:09:41 26° SSE
Okean 2 3.8 22:07:04 27° SE 22:08:36 41° E 22:12:14 10° NNE
Cosmos 1241 Rocket 4.4 22:03:14 10° SSW 22:09:23 76° SE 22:15:39 10° NE
Cosmos 1420 Rocket 3.9 22:04:45 10° NNW 22:10:00 88° WSW 22:13:10 24° SSE
NOSS 2-3 (D) 3.2 22:07:39 10° SW 22:11:21 80° NW 22:15:15 10° NE
ALOS 2 3.1 22:11:55 22° SE 22:14:26 50° ENE 22:18:42 10° N
Cosmos 1538 Rocket 4.2 22:11:36 12° SSW 22:16:28 73° WNW 22:21:43 10° NNE
Cosmos 2315 Rocket 4.0 22:13:38 20° S 22:18:12 87° E 22:24:27 10° N
Cosmos 1943 Rocket 2.7 22:16:33 24° SSE 22:19:32 43° ESE 22:24:51 10° NE
Meteor 1-21 4.2 22:18:13 22° S 22:21:58 81° E 22:27:38 10° NNE
Cosmos 923 Rocket 4.0 22:21:15 23° S 22:24:27 64° ESE 22:29:37 10° NNE
CZ-2C R/B 3.8 22:22:33 10° NNE 22:27:14 68° ESE 22:29:46 27° S
Cosmos 1328 Rocket 3.9 22:24:40 20° SSW 22:27:32 61° WNW 22:31:51 10° N
Cosmos 2112 Rocket 4.4 22:28:53 26° SSE 22:31:22 45° ESE 22:36:17 10° NE
Lacrosse 5 rocket 1.0 22:30:44 34° SSW 22:31:55 51° SE 22:35:20 10° ENE
CZ-2C R/B 3.6 22:31:43 16° SE 22:35:25 38° ENE 22:40:13 10° N
USA 81 4.1 22:32:38 10° N 22:37:56 73° E 22:40:53 26° SSE
NOSS 2-3 (E) 4.2 22:35:31 10° WSW 22:39:02 46° NW 22:42:52 10° NE
Cosmos 1371 Rocket 4.0 22:35:19 10° NNW 22:40:37 86° ENE 22:43:38 26° SSE
USA 215 3.9 22:37:29 23° S 22:40:53 39° SW 22:46:55 10° WNW
PSLV R/B 3.9 22:37:57 10° NNE 22:42:32 58° E 22:44:44 29° S
Cosmos 1869 Rocket 3.9 22:42:24 10° N 22:46:38 54° ENE 22:48:44 27° SE
GEOS 3 Rocket 3.9 22:45:16 26° SSE 22:48:08 55° SW 22:53:27 10° NW
MetOp-A 3.8 22:53:36 27° SE 22:55:31 53° ENE 22:59:16 10° N
NOSS 2-1 (D) 3.6 22:55:58 35° SE 22:56:12 35° SE 22:59:06 10° ENE
Cosmos 1515 Rocket 3.6 22:55:38 28° SSW 22:57:51 72° W 23:02:12 10° N
Cosmos 2154 Rocket 4.1 22:51:45 10° N 22:57:58 73° ENE 23:01:51 24° SSE
Cosmos 2184 Rocket 4.0 22:52:42 10° N 22:58:59 80° E 23:02:54 25° SSE
NOSS 2-1 (C) 3.8 22:59:06 32° SE 22:59:13 32° SE 23:02:06 10° ENE
Cosmos 1833 Rocket 4.0 22:57:11 10° NW 23:01:51 27° WSW 23:04:36 19° SW
Spot 4 4.2 22:59:30 27° SSW 23:01:53 53° W 23:06:38 10° NNW
USA 59 Rocket -0.4 23:01:29 43° SSE 23:01:59 48° SE 23:04:55 10° NE
SAR-Lupe-2 3.2 23:05:49 46° SSE 23:06:41 89° E 23:09:56 10° NNW
Cosmos 1733 Rocket 4.1 23:02:42 10° N 23:06:42 36° ENE 23:09:08 20° SE
Cosmos 2082 Rocket 2.2 23:02:29 10° NNW 23:08:10 82° ENE 23:11:51 22° SSE
Okean 3 3.3 23:09:18 34° SSW 23:10:58 79° W 23:14:59 10° N
Cosmos 2278 Rocket 2.1 23:09:54 24° SSW 23:13:25 81° ESE 23:19:07 10° NNE
Cosmos 1331 Rocket 4.0 23:15:16 10° NNW 23:20:27 81° ENE 23:23:34 24° SSE
Okean 1-7 4.0 23:20:00 24° SE 23:21:45 34° E 23:25:35 10° NNE
Cosmos 1400 Rocket 3.5 23:20:57 10° NNW 23:24:23 37° W 23:25:30 29° SW
Cosmos 1680 Rocket 3.9 23:22:43 19° SW 23:26:25 58° WNW 23:31:34 10° NNE
COSMOS 2406 3.7 23:20:48 10° NNW 23:26:27 59° NE 23:31:27 13° SE
CZ-2C R/B 3.1 23:20:58 10° NNE 23:26:36 88° ESE 23:29:38 27° SSW
Cosmos 494 Rocket 4.3 23:24:38 21° SW 23:28:08 66° WNW 23:33:23 10° NNE
Cosmos 2056 Rocket 4.3 23:26:52 10° NW 23:31:30 35° WSW 23:33:39 25° SSW
Helios 1B rocket 4.3 23:31:35 12° WSW 23:32:34 13° W 23:34:18 10° WNW
Cosmos 1048 Rocket 4.0 23:31:19 28° S 23:34:03 74° ESE 23:39:20 10° NNE
Cosmos 1328 3.4 23:35:16 41° S 23:36:24 78° E 23:39:57 10° NNE
Cosmos 1812 3.9 23:35:18 10° NW 23:35:32 12° NW 23:35:32 12° NW
ARIANE 5 R/B 4.2 23:36:34 18° SW 23:38:25 24° W 23:42:03 10° NW
ACS3 Solar Sail 1.9 23:34:12 10° NNE 23:39:50 59° E 23:43:12 25° S
USA 238 DEB 3.6 23:36:16 14° SW 23:41:41 79° NW 23:48:36 10° NE
USA 238 3.6 23:36:31 14° SW 23:41:54 80° NW 23:48:48 10° NE
Lacrosse 4 Rocket 4.1 23:39:34 10° N 23:42:37 19° NE 23:45:38 10° E
Geosat 4.1 23:42:08 10° NE 23:47:07 62° ESE 23:49:42 28° S
Cosmos 546 4.4 23:46:22 10° WSW 23:50:09 83° SSE 23:53:57 10° E
BREEZE-M DEB (TANK) 3.1 23:39:07 10° W 23:50:30 80° SSW 23:54:10 10° ESE
ALOS 2 4.3 23:49:18 17° WSW 23:51:03 21° W 23:54:24 10° NW
SWAS 4.2 23:52:23 34° SSW 23:54:05 78° ESE 23:58:10 10° NNE
TIMED 4.4 23:53:01 31° SSW 23:55:01 87° WNW 23:59:18 10° NNE
Cosmos 1441 Rocket 4.2 23:54:17 22° WSW 23:55:32 29° WNW 23:58:24 10° N
